Regional Weather Roundup
Issued by NWS

Home | Current Version | Previous Version | Graphics & Text | Print | Product List | Glossary On
Versions: 1 2 3 4 5 6 7 8 9 10 11 12 13 14 15 16 17 18 19 20 21 22 23 24 25 26 27 28 29 30 31 32 33 34 35 36 37 38 39 40 41 42 43 44 45 46 47 48 49 50
000
ASUS43 KLOT 301608
RWRIL

ILLINOIS REGIONAL WEATHER ROUNDUP
NATIONAL WEATHER SERVICE CHICAGO/ROMEOVILLE IL
1100 AM CDT SAT APR 30 2016

NOTE: "FAIR" INDICATES FEW OR NO CLOUDS BELOW 12,000 FEET WITH NO
SIGNIFICANT WEATHER AND/OR OBSTRUCTIONS TO VISIBILITY.

* THESE STATIONS ARE NOT UNDER NWS QUALITY CONTROL. THEY ALSO MAY NOT
  REPORT WEATHER SUCH AS PRECIPITATION OR FOG.

ILZ001-002-007-009-015-016-024-301700-
NORTHWEST ILLINOIS

CITY           SKY/WX    TMP DP  RH WIND       PRES   REMARKS
MOLINE         LGT RAIN  50  46  86 E22       29.85F FOG
STERLING*      CLOUDY    48  46  93 E21G26    29.90F
SAVANNA*       LGT RAIN  49  46  90 E20       29.92F
$$

ILZ003-004-008-010-011-017-018-301700-
NORTH CENTRAL ILLINOIS

CITY           SKY/WX    TMP DP  RH WIND       PRES   REMARKS
ROCKFORD       LGT RAIN  49  43  80 E13       30.01F HAZE
FREEPORT*      LGT RAIN  47  44  90 E17       29.99S
ROCHELLE*      LGT RAIN  48  45  88 E20G28    29.97F
DE KALB*       LGT RAIN  48  44  87 E17G23    29.99F
$$

ILZ005-006-012>014-019>023-301700-
NORTHEAST ILLINOIS

CITY           SKY/WX    TMP DP  RH WIND       PRES   REMARKS
CHICAGO-OHARE  LGT RAIN  47  40  76 E13       30.03F
CHICAGO-MIDWAY LGT RAIN  48  41  76 E14       30.03S
AURORA         LGT RAIN  49  44  83 E16G26    29.99F
LANSING*       LGT RAIN  46  43  88 E10       30.02F
JOLIET*        LGT RAIN  49  46  90 E16       29.99F
WAUKEGAN       CLOUDY    45  40  82 E13       30.06S
DUPAGE AIRPORT LGT RAIN  47  41  80 E15       30.00F
KANKAKEE*      LGT RAIN  47  46  95 E13G20    29.99S
WHEELING       LGT RAIN  46  38  73 E8        30.06F
MORRIS*        LGT RAIN  48  45  90 E18       29.95F
ROMEOVILLE*    LGT RAIN  47  43  87 E14G21    29.99F
NORTHERLY ISL    N/A     45  40  82 E12         N/A
NORTHERLY ISL    N/A     45  40  82 E12         N/A
$$

LMZ740>746-301700-
SOUTHERN LAKE MICHIGAN

STATION/POSITION SKY/WX   TEMP    WIND        PRES    VSBY  WAVE
                          AIR SEA DIR/SP/G                  HT/PER
                          (F)     (DEG/KT/KT) (MB)    (MI)  (FT/S)
SOUTHERN BUOY              42 40   80/  8/ 10 1019.4R         1/ 3
HARRISON CRIB              47      90/ 17/ 18   N/A
BURNHAM HARBOR             45      70/ 10/ 12   N/A
CALUMET HARBOR             47      60/  9/ 12 1016.7F
BURNS HARBOR               48      90/ 11/ 18 1017.6F
MICHIGAN CITY              48      80/ 12/ 14   N/A
ST. JOSEPH                 49 47                N/A           1
$$

ILZ025>027-034>036-040-047-049-050-058-095>099-301700-
WEST-CENTRAL ILLINOIS

CITY           SKY/WX    TMP DP  RH WIND       PRES   REMARKS
QUINCY         LGT RAIN  57  55  93 SE18G25   29.73S FOG
GALESBURG*     RAIN      50  49  97 E15G21    29.82F
MACOMB*        LGT RAIN  52  52  99 E20G28    29.81F
JACKSONVILLE*  LGT RAIN  57  55  93 E16       29.79S
PITTSFIELD*    CLOUDY    58  57  97 SE13      29.77S FOG
$$

ILZ028>032-037-038-041>044-048-051>054-059>061-301700-
CENTRAL ILLINOIS

CITY           SKY/WX    TMP DP  RH WIND       PRES   REMARKS
PONTIAC        LGT RAIN  51  50  97 E23       29.92F
BLOOMINGTON    LGT RAIN  53  53 100 E26       29.85F FOG
DECATUR        CLOUDY    56  53  90 E23       29.83F
PEORIA         LGT RAIN  52  50  93 E9        29.85F
LACON*         LGT RAIN  49  48  94 E18G26    29.84F
LINCOLN*       DRIZZLE   56  55  95 SE13G24   29.84S
SPRINGFIELD    RAIN      57  57 100 E16G25    29.81F FOG
TAYLORVILLE    RAIN      55  55 100 SE14      29.82R
$$

ILZ033-039-045-046-055>057-062-063-301700-
EAST-CENTRAL ILLINOIS

CITY           SKY/WX    TMP DP  RH WIND       PRES   REMARKS
CHAMPAIGN      LGT RAIN  53  53 100 E21G30    29.86F FOG
RANTOUL*       LGT RAIN  53  52  96 E15G22    29.89F
MATTOON        RAIN      56  53  90 E15G24    29.84F FOG
PARIS*         LGT RAIN  55  54  97 E15       29.90F
$$

ILZ079-100>102-301700-
SOUTHWEST ILLINOIS

CITY           SKY/WX    TMP DP  RH WIND       PRES   REMARKS
ALTON          RAIN      59  59 100 E6        29.78S
BELLEVILLE     CLOUDY    62  62 100 SE10      29.77S
CAHOKIA*       LGT RAIN  63  60  90 S7        29.76F
SPARTA*        CLOUDY    63  61  93 S8        29.81R
$$

ILZ064>066-069>071-074>076-080>082-084>086-088>090-092>094-301700-
SOUTH-CENTRAL ILLINOIS

CITY           SKY/WX    TMP DP  RH WIND       PRES   REMARKS
CARBONDALE     CLOUDY    64  61  90 SE9       29.81S
CAIRO*         CLOUDY    64  63  94 CALM      29.84R
EFFINGHAM*     CLOUDY    58  58 100 E18G25    29.84F
MARION         CLOUDY    64  63  94 S8        29.84R
MT. VERNON     CLOUDY    59  55  88 E10G17    29.84S
CENTRALIA*     LGT RAIN  60  60  98 SE12G17   29.82R
SALEM*         LGT RAIN  60  58  92 SE8G20    29.83S
METROPOLIS*    LGT RAIN  65  65 100 SE5       29.85R
$$

ILZ067-068-072-073-078-083-087-091-301700-
SOUTHEAST ILLINOIS

CITY           SKY/WX    TMP DP  RH WIND       PRES   REMARKS
LAWRENCEVILLE  LGT RAIN  59  59 100 E13       29.89F FOG
FLORA*         RAIN      60  58  94 SE10G21   29.85F
FAIRFIELD*     DRIZZLE   59  59  99 E7        29.84S
HARRISBURG*    DRIZZLE   63  62  97 SE10      29.86R
ROBINSON*      LGT RAIN  56  55  98 E13       29.90F
CARMI*         CLOUDY    62  60  96 E10       29.85F
$$

ABBREVIATIONS USED IN REMARKS
   TC - TEMPERATURE IN CELSIUS
  WCI - WIND CHILL INDEX
   HX - HEAT INDEX
  VSB - VISIBILITY
$$




USA.gov is the U.S. government's official web portal to all federal, state and local government web resources and services.